Schneifelwetter: Wetterstation Hallschlag, 537 m . NN
Wetterdaten: Sonntag, 26.11.2006
Datum Zeit Temp. A. Temp. 2 Feuchte A. Luftdruck Regen Wind Richtung Richtung Sonnenschein Helligkeit T Regen Taupunkt Windchill
26.11.2006 00:02 8,9 C 8,6 C 89 % 1012 hPa 0,0 l/m 31,1 km/h (5 Bft) SW45 220 0 min 0 lux 0,00 min 7,2 C -1,1 C
26.11.2006 00:17 8,9 C 8,5 C 89 % 1012 hPa 0,0 l/m 20,9 km/h (4 Bft) S-SW45 200 0 min 0 lux 0,00 min 7,2 C 1,6 C
26.11.2006 00:32 8,8 C 8,5 C 89 % 1013 hPa 0,0 l/m 20,5 km/h (4 Bft) S22.5 185 0 min 0 lux 0,00 min 7,1 C 1,6 C
26.11.2006 00:46 8,8 C 8,4 C 89 % 1012 hPa 0,0 l/m 22,9 km/h (4 Bft) S-SW45 195 0 min 0 lux 0,00 min 7,1 C 0,8 C
26.11.2006 01:01 8,7 C 8,4 C 89 % 1013 hPa 0,0 l/m 30,6 km/h (5 Bft) SW45 215 0 min 0 lux 0,00 min 7,0 C -1,3 C
26.11.2006 01:16 8,6 C 8,3 C 89 % 1013 hPa 0,0 l/m 23,0 km/h (4 Bft) SW45 215 0 min 0 lux 0,00 min 6,9 C 0,5 C
26.11.2006 01:31 8,4 C 8,1 C 89 % 1013 hPa 0,0 l/m 28,8 km/h (4 Bft) S-SW45 210 0 min 0 lux 0,00 min 6,7 C -1,3 C
26.11.2006 01:46 8,3 C 8,0 C 89 % 1013 hPa 0,0 l/m 24,1 km/h (4 Bft) SW45 220 0 min 0 lux 0,00 min 6,6 C -0,2 C
26.11.2006 02:01 8,2 C 8,0 C 89 % 1014 hPa 0,0 l/m 23,4 km/h (4 Bft) SW45 225 0 min 0 lux 0,00 min 6,5 C -0,1 C
26.11.2006 02:16 8,1 C 7,8 C 89 % 1014 hPa 0,0 l/m 23,8 km/h (4 Bft) SW45 235 0 min 0 lux 0,00 min 6,4 C -0,4 C
26.11.2006 02:31 8,0 C 7,7 C 89 % 1014 hPa 0,0 l/m 15,1 km/h (3 Bft) W-SW45 240 0 min 0 lux 0,00 min 6,3 C 2,7 C
26.11.2006 02:46 8,0 C 7,8 C 89 % 1014 hPa 0,0 l/m 22,8 km/h (4 Bft) S-SW45 210 0 min 0 lux 0,00 min 6,3 C -0,2 C
26.11.2006 03:01 8,0 C 7,8 C 89 % 1014 hPa 0,0 l/m 22,4 km/h (4 Bft) SW45 215 0 min 0 lux 0,00 min 6,3 C -0,1 C
26.11.2006 03:16 8,1 C 7,9 C 89 % 1015 hPa 0,0 l/m 30,2 km/h (5 Bft) SW22.5 230 0 min 0 lux 0,00 min 6,4 C -2,1 C
26.11.2006 03:31 8,1 C 7,9 C 89 % 1014 hPa 0,0 l/m 23,5 km/h (4 Bft) SW45 225 0 min 0 lux 0,00 min 6,4 C -0,3 C
26.11.2006 03:46 8,0 C 7,8 C 89 % 1014 hPa 0,0 l/m 16,6 km/h (3 Bft) S-SW22.5 210 0 min 0 lux 0,00 min 6,3 C 2,0 C
26.11.2006 04:01 8,0 C 7,7 C 89 % 1015 hPa 0,0 l/m 22,5 km/h (4 Bft) SW45 215 0 min 0 lux 0,00 min 6,3 C -0,1 C
26.11.2006 04:16 7,9 C 7,6 C 89 % 1015 hPa 0,0 l/m 14,7 km/h (3 Bft) SW45 220 0 min 0 lux 0,00 min 6,2 C 2,7 C
26.11.2006 04:31 7,9 C 7,7 C 89 % 1015 hPa 0,0 l/m 25,1 km/h (4 Bft) S-SW45 210 0 min 0 lux 0,00 min 6,2 C -1,0 C
26.11.2006 04:46 8,0 C 7,7 C 89 % 1015 hPa 0,0 l/m 15,8 km/h (3 Bft) S-SW45 210 0 min 0 lux 0,00 min 6,3 C 2,4 C
26.11.2006 05:01 7,9 C 7,6 C 89 % 1014 hPa 0,0 l/m 17,0 km/h (3 Bft) S67.5 185 0 min 0 lux 0,00 min 6,2 C 1,7 C
26.11.2006 05:16 7,8 C 7,4 C 89 % 1015 hPa 0,0 l/m 15,2 km/h (3 Bft) S-SW22.5 195 0 min 0 lux 0,00 min 6,1 C 2,4 C
26.11.2006 05:31 7,8 C 7,5 C 90 % 1015 hPa 0,0 l/m 15,3 km/h (3 Bft) S22.5 190 0 min 0 lux 0,00 min 6,3 C 2,3 C
26.11.2006 05:46 7,9 C 7,6 C 90 % 1015 hPa 0,0 l/m 17,6 km/h (3 Bft) W-SW45 250 0 min 0 lux 0,00 min 6,4 C 1,5 C
26.11.2006 06:01 8,0 C 7,7 C 90 % 1015 hPa 0,0 l/m 23,3 km/h (4 Bft) S45 190 0 min 0 lux 0,00 min 6,5 C -0,4 C
26.11.2006 06:16 8,0 C 7,7 C 89 % 1015 hPa 0,0 l/m 21,3 km/h (4 Bft) S-SW45 205 0 min 0 lux 0,00 min 6,3 C 0,3 C
26.11.2006 06:31 7,9 C 7,7 C 89 % 1015 hPa 0,0 l/m 23,4 km/h (4 Bft) SW45 215 0 min 0 lux 0,00 min 6,2 C -0,5 C
26.11.2006 06:46 7,9 C 7,6 C 90 % 1015 hPa 0,0 l/m 19,1 km/h (3 Bft) S22.5 180 0 min 0 lux 0,00 min 6,4 C 0,9 C
26.11.2006 07:01 7,9 C 7,6 C 90 % 1016 hPa 0,0 l/m 21,5 km/h (4 Bft) S-SW45 210 0 min 0 lux 0,00 min 6,4 C 0,1 C
26.11.2006 07:16 7,9 C 7,6 C 90 % 1016 hPa 0,0 l/m 20,0 km/h (4 Bft) SW22.5 220 0 min 0 lux 0,00 min 6,4 C 0,6 C
26.11.2006 07:31 7,9 C 7,6 C 90 % 1016 hPa 0,0 l/m 19,4 km/h (3 Bft) SW45 220 0 min 0 lux 0,00 min 6,4 C 0,8 C
26.11.2006 07:46 7,9 C 7,7 C 90 % 1016 hPa 0,0 l/m 13,5 km/h (3 Bft) SW45 225 0 min 0 lux 0,00 min 6,4 C 3,3 C
26.11.2006 08:01 7,9 C 7,6 C 90 % 1016 hPa 0,0 l/m 17,3 km/h (3 Bft) S-SW45 205 0 min 0 lux 0,00 min 6,4 C 1,6 C
26.11.2006 08:16 7,8 C 7,5 C 90 % 1016 hPa 0,0 l/m 13,2 km/h (3 Bft) SW22.5 230 0 min 78 lux 0,00 min 6,3 C 3,3 C
26.11.2006 08:31 7,8 C 7,4 C 90 % 1016 hPa 0,0 l/m 16,6 km/h (3 Bft) SW45 215 0 min 263 lux 0,00 min 6,3 C 1,8 C
26.11.2006 08:46 7,8 C 7,3 C 90 % 1017 hPa 0,0 l/m 15,7 km/h (3 Bft) SW22.5 225 0 min 473 lux 0,00 min 6,3 C 2,2 C
26.11.2006 09:01 7,8 C 7,3 C 91 % 1017 hPa 0,3 l/m 16,4 km/h (3 Bft) S-SW45 200 0 min 1,36 klux 15,00 min 6,4 C 1,8 C
26.11.2006 09:16 7,9 C 7,3 C 91 % 1017 hPa 0,0 l/m 17,9 km/h (3 Bft) S-SW45 205 0 min 1,73 klux 0,00 min 6,5 C 1,4 C
26.11.2006 09:31 7,9 C 7,3 C 91 % 1017 hPa 0,0 l/m 14,6 km/h (3 Bft) W-SW22.5 250 0 min 2,38 klux 0,00 min 6,5 C 2,8 C
26.11.2006 09:46 8,0 C 7,4 C 91 % 1017 hPa 0,3 l/m 11,4 km/h (2 Bft) S-SW22.5 205 0 min 3,88 klux 15,00 min 6,6 C 4,5 C
26.11.2006 10:01 8,1 C 7,5 C 91 % 1017 hPa 0,0 l/m 11,6 km/h (2 Bft) SW22.5 215 0 min 4,25 klux 0,00 min 6,7 C 4,5 C
26.11.2006 10:16 8,2 C 7,6 C 91 % 1017 hPa 0,0 l/m 12,6 km/h (3 Bft) SW45 215 0 min 4,87 klux 0,00 min 6,8 C 4,1 C
26.11.2006 10:31 8,3 C 7,7 C 91 % 1017 hPa 0,0 l/m 15,8 km/h (3 Bft) SW45 230 0 min 6,65 klux 0,00 min 6,9 C 2,7 C
26.11.2006 10:46 8,6 C 7,9 C 91 % 1018 hPa 0,0 l/m 15,1 km/h (3 Bft) S-SW45 205 0 min 9,1 klux 0,00 min 7,2 C 3,4 C
26.11.2006 11:01 8,9 C 8,2 C 90 % 1018 hPa 0,0 l/m 14,5 km/h (3 Bft) S-SW45 195 0 min 11,9 klux 0,00 min 7,4 C 4,0 C
26.11.2006 11:16 8,9 C 8,2 C 90 % 1018 hPa 0,3 l/m 18,8 km/h (3 Bft) SW45 235 0 min 6,94 klux 15,00 min 7,4 C 2,3 C
26.11.2006 11:31 8,9 C 8,4 C 90 % 1018 hPa 0,0 l/m 16,1 km/h (3 Bft) SW45 225 0 min 8,03 klux 0,00 min 7,4 C 3,3 C
26.11.2006 11:46 9,2 C 8,7 C 90 % 1018 hPa 0,0 l/m 21,5 km/h (4 Bft) W-SW67.5 250 0 min 8,03 klux 0,00 min 7,6 C 1,8 C
26.11.2006 12:01 9,4 C 8,9 C 89 % 1018 hPa 0,0 l/m 20,1 km/h (4 Bft) SW67.5 225 0 min 28,2 klux 0,00 min 7,7 C 2,5 C
26.11.2006 12:16 9,5 C 9,2 C 89 % 1018 hPa 0,0 l/m 16,1 km/h (3 Bft) W-SW45 240 0 min 16,4 klux 0,00 min 7,8 C 4,1 C
26.11.2006 12:31 9,6 C 9,4 C 89 % 1018 hPa 0,0 l/m 16,1 km/h (3 Bft) W-SW45 245 0 min 16,9 klux 0,00 min 7,9 C 4,2 C
26.11.2006 12:46 9,9 C 9,6 C 88 % 1018 hPa 0,0 l/m 12,0 km/h (2 Bft) W45 260 0 min 18,7 klux 0,00 min 8,0 C 6,4 C
26.11.2006 13:01 10,0 C 9,9 C 87 % 1018 hPa 0,0 l/m 16,4 km/h (3 Bft) SW45 235 0 min 23,1 klux 0,00 min 7,9 C 4,6 C
26.11.2006 13:17 10,2 C 10,0 C 87 % 1017 hPa 0,0 l/m 21,4 km/h (4 Bft) W-SW45 240 0 min 21,0 klux 0,00 min 8,1 C 3,1 C
26.11.2006 13:32 10,3 C 10,2 C 87 % 1017 hPa 0,0 l/m 17,0 km/h (3 Bft) W-SW22.5 255 0 min 24,4 klux 0,00 min 8,2 C 4,7 C
26.11.2006 13:47 10,4 C 10,7 C 86 % 1017 hPa 0,0 l/m 19,4 km/h (3 Bft) S-SW22.5 200 0 min 34,0 klux 0,00 min 8,2 C 4,0 C
26.11.2006 14:02 10,5 C 10,4 C 86 % 1017 hPa 0,0 l/m 17,7 km/h (3 Bft) W22.5 260 15 min 50,6 klux 0,00 min 8,3 C 4,7 C
26.11.2006 14:17 10,4 C 10,1 C 85 % 1017 hPa 0,0 l/m 16,1 km/h (3 Bft) W45 265 0 min 27,2 klux 0,00 min 8,0 C 5,2 C
26.11.2006 14:32 10,2 C 10,0 C 85 % 1017 hPa 0,0 l/m 16,1 km/h (3 Bft) SW45 230 0 min 15,4 klux 0,00 min 7,8 C 4,9 C
26.11.2006 14:47 10,2 C 10,0 C 86 % 1017 hPa 0,0 l/m 12,9 km/h (3 Bft) W22.5 260 0 min 17,0 klux 0,00 min 8,0 C 6,3 C
26.11.2006 15:02 10,2 C 9,8 C 84 % 1017 hPa 0,0 l/m 14,7 km/h (3 Bft) S-SW45 210 0 min 11,6 klux 0,00 min 7,6 C 5,5 C
26.11.2006 15:17 10,1 C 9,7 C 84 % 1017 hPa 0,0 l/m 18,8 km/h (3 Bft) SW45 230 0 min 11,6 klux 0,00 min 7,5 C 3,8 C
26.11.2006 15:32 9,9 C 9,6 C 84 % 1017 hPa 0,0 l/m 19,0 km/h (3 Bft) SW45 230 0 min 10,0 klux 0,00 min 7,3 C 3,5 C
26.11.2006 15:47 9,7 C 9,5 C 84 % 1018 hPa 0,0 l/m 12,5 km/h (3 Bft) SW45 220 0 min 9,7 klux 0,00 min 7,1 C 5,9 C
26.11.2006 16:02 9,4 C 9,2 C 84 % 1018 hPa 0,0 l/m 17,0 km/h (3 Bft) SW45 225 0 min 7,16 klux 0,00 min 6,8 C 3,6 C
26.11.2006 16:17 8,9 C 9,0 C 85 % 1018 hPa 0,0 l/m 9,2 km/h (2 Bft) SW22.5 225 0 min 5,78 klux 0,00 min 6,5 C 6,9 C
26.11.2006 16:32 8,7 C 8,1 C 85 % 1018 hPa 0,0 l/m 7,6 km/h (2 Bft) SW22.5 225 0 min 3,90 klux 0,00 min 6,3 C 7,8 C
26.11.2006 16:47 7,9 C 7,3 C 86 % 1018 hPa 0,0 l/m 14,6 km/h (3 Bft) W22.5 260 0 min 1,86 klux 0,00 min 5,7 C 2,8 C
26.11.2006 17:02 7,2 C 6,4 C 87 % 1019 hPa 0,0 l/m 8,1 km/h (2 Bft) W-SW22.5 245 0 min 669 lux 0,00 min 5,2 C 5,8 C
26.11.2006 17:17 6,7 C 5,4 C 87 % 1019 hPa 0,0 l/m 6,5 km/h (2 Bft) SW22.5 230 0 min 483 lux 0,00 min 4,7 C 6,6 C
26.11.2006 17:32 6,1 C 4,8 C 88 % 1019 hPa 0,0 l/m 6,5 km/h (2 Bft) SW22.5 235 0 min 64 lux 0,00 min 4,3 C 6,0 C
26.11.2006 17:47 5,7 C 4,4 C 89 % 1019 hPa 0,0 l/m 7,8 km/h (2 Bft) SW22.5 235 0 min 4 lux 0,00 min 4,0 C 4,5 C
26.11.2006 18:02 5,5 C 4,2 C 89 % 1019 hPa 0,0 l/m 8,0 km/h (2 Bft) W-SW22.5 255 0 min 0 lux 0,00 min 3,8 C 4,1 C
26.11.2006 18:17 5,4 C 4,2 C 90 % 1019 hPa 0,0 l/m 7,8 km/h (2 Bft) W-SW22.5 250 0 min 0 lux 0,00 min 3,9 C 4,2 C
26.11.2006 18:32 5,2 C 3,7 C 90 % 1019 hPa 0,0 l/m 4,2 km/h (1 Bft) W-SW 255 0 min 0 lux 0,00 min 3,7 C 5,2 C
26.11.2006 18:47 4,7 C 3,2 C 91 % 1019 hPa 0,0 l/m 0,3 km/h (0 Bft) W-SW 255 0 min 0 lux 0,00 min 3,4 C 4,7 C
26.11.2006 19:02 4,3 C 2,6 C 91 % 1019 hPa 0,0 l/m 9,8 km/h (2 Bft) S-SW22.5 205 0 min 0 lux 0,00 min 3,0 C 1,4 C
26.11.2006 19:17 4,7 C 3,5 C 92 % 1019 hPa 0,0 l/m 10,3 km/h (2 Bft) S-SW 195 0 min 0 lux 0,00 min 3,5 C 1,5 C
26.11.2006 19:32 4,6 C 3,3 C 92 % 1020 hPa 0,0 l/m 0,1 km/h (0 Bft) S 190 0 min 0 lux 0,00 min 3,4 C 4,6 C
26.11.2006 19:47 4,5 C 3,3 C 93 % 1020 hPa 0,0 l/m 5,4 km/h (1 Bft) S 190 0 min 0 lux 0,00 min 3,5 C 4,5 C
26.11.2006 20:02 4,6 C 3,1 C 93 % 1020 hPa 0,0 l/m 0,0 km/h (0 Bft) S 190 0 min 0 lux 0,00 min 3,6 C 4,6 C
26.11.2006 20:17 4,7 C 3,6 C 93 % 1020 hPa 0,0 l/m 0,3 km/h (0 Bft) S 190 0 min 0 lux 0,00 min 3,7 C 4,7 C
26.11.2006 20:32 4,9 C 4,1 C 93 % 1020 hPa 0,0 l/m 0,0 km/h (0 Bft) S 190 0 min 0 lux 0,00 min 3,9 C 4,9 C
26.11.2006 20:47 4,9 C 4,1 C 93 % 1020 hPa 0,0 l/m 0,0 km/h (0 Bft) S 190 0 min 0 lux 0,00 min 3,9 C 4,9 C
26.11.2006 21:02 4,9 C 4,0 C 93 % 1020 hPa 0,0 l/m 3,5 km/h (1 Bft) S 190 0 min 0 lux 0,00 min 3,9 C 4,9 C
26.11.2006 21:17 4,6 C 3,8 C 93 % 1020 hPa 0,0 l/m 0,0 km/h (0 Bft) S 190 0 min 0 lux 0,00 min 3,6 C 4,6 C
26.11.2006 21:32 4,3 C 3,5 C 93 % 1020 hPa 0,0 l/m 5,5 km/h (1 Bft) W 270 0 min 0 lux 0,00 min 3,3 C 4,3 C
26.11.2006 21:47 4,1 C 3,5 C 93 % 1020 hPa 0,0 l/m 4,0 km/h (1 Bft) W 275 0 min 0 lux 0,00 min 3,1 C 4,1 C
26.11.2006 22:01 3,0 C 3,0 C 93 % 1020 hPa 0,0 l/m 4,4 km/h (1 Bft) W 270 0 min 0 lux 0,00 min 2,0 C 3,0 C
26.11.2006 22:16 3,0 C 2,5 C 93 % 1020 hPa 0,0 l/m 6,0 km/h (2 Bft) W-SW22.5 255 0 min 0 lux 0,00 min 2,0 C 3,0 C
26.11.2006 22:31 3,0 C 1,8 C 93 % 1020 hPa 0,0 l/m 4,8 km/h (1 Bft) W22.5 265 0 min 0 lux 0,00 min 2,0 C 3,0 C
26.11.2006 22:46 3,0 C 1,4 C 93 % 1020 hPa 0,0 l/m 6,5 km/h (2 Bft) W22.5 270 0 min 0 lux 0,00 min 2,0 C 2,9 C
26.11.2006 23:01 3,0 C 1,0 C 93 % 1020 hPa 0,0 l/m 0,0 km/h (0 Bft) W 280 0 min 0 lux 0,00 min 2,0 C 3,0 C
26.11.2006 23:16 3,0 C 0,9 C 93 % 1020 hPa 0,0 l/m 4,6 km/h (1 Bft) N45 360 0 min 0 lux 0,00 min 2,0 C 3,0 C
26.11.2006 23:31 3,0 C 0,8 C 93 % 1020 hPa 0,0 l/m 0,1 km/h (0 Bft) N 5 0 min 0 lux 0,00 min 2,0 C 3,0 C
26.11.2006 23:46 3,0 C 0,9 C 93 % 1020 hPa 0,0 l/m 2,6 km/h (1 Bft) N 5 0 min 0 lux 0,00 min 2,0 C 3,0 C
_ Min-Zeit 22:01 23:31 15:02 00:02 - 20:02 - - - - - 22:01 03:16
Minimum _ 3,0 C 0,8 C 84 % 1012 hPa - 0,0 km/h (0 Bft) - - - - - 2,0 C -2,1 C
_ Max-Zeit 14:02 13:47 19:47 19:32 09:01 00:02 - - 14:02 14:02 09:01 14:02 16:32
Maximum _ 10,5 C 10,7 C 93 % 1020 hPa 0,3 l/m 31,1 km/h
SW (5 Bft)
- - 15 min 50,6 klux 15,00 min 8,3 C 7,8 C
Durchschnitt _ 7,4 C 6,8 C 89 % 1017 hPa #0,9 l/m 14,2 km/h (3 Bft) SW - #15 min. 4,43 klux #45 min. 5,8 C 2,8 C